Russellville, AR

3:43 PM CDT on October 16, 2019 (GMT -0500)
Russellville Regional

Weather History for KRUE - August, 2019

Change the Weather History Date:

Sunday, August 4, 2019

  Actual Average (KHOT) Record (KHOT)
Temperature  
Mean Temperature 81 °F -  
Max Temperature 93 °F 91 °F 107 °F (1964)
Min Temperature 71 °F 68 °F 53 °F (1976)
Cooling Degree Days 16    
Growing Degree Days 31 (Base 50)    
Moisture  
Dew Point 69 °F    
Average Humidity 77    
Maximum Humidity 94    
Minimum Humidity 39    
Precipitation  
Precipitation 0.00 in - - ()
Sea Level Pressure  
Sea Level Pressure 29.95 in    
Wind  
Wind Speed 1 mph (NNE)    
Max Wind Speed 6 mph    
Max Gust Speed -    
Visibility 7 miles    
Events      
Averages and records for this station are not official NWS values.
T = Trace of Precipitation, MM = Missing Value Source: NWS Daily Summary

Daily Weather History Graph

Daily Weather History Graph

Search for Another Location

Airport or City:

Astronomy

Aug. 04, 2019 Rise Set
Actual Time 6:23 AM CDT 8:13 PM CDT
Civil Twilight 5:55 AM CDT 8:40 PM CDT
Nautical Twilight 5:22 AM CDT 9:14 PM CDT
Astronomical Twilight 4:46 AM CDT 9:49 PM CDT
Moon 10:21 AM CDT (8/4) 11:02 PM CDT (8/4)
Length of Visible Light 14h 45m
Length of Day
13h 49m
Waxing Crescent, 18% of the Moon is Illuminated
Aug 4
Waxing Crescent
Aug 7
First Quarter
Aug 15
Full
Aug 23
Last Quarter
Aug 30
New

Hourly Weather History & Observations

Time (CDT) Temp. Heat Index Dew Point Humidity Pressure Visibility Wind Dir Wind Speed Gust Speed Precip Events Conditions
12:53 AM 75.0 °F - 72.0 °F 90% 29.96 in 10.0 mi North 4.6 mph - N/A   Clear
1:53 AM 75.0 °F - 72.0 °F 90% 29.96 in 8.0 mi Calm Calm - N/A   Clear
2:48 AM 71.6 °F - 69.8 °F 94% 29.98 in 2.0 mi Calm Calm - N/A   Partly Cloudy
2:53 AM 72.0 °F - 70.0 °F 93% 29.95 in 2.0 mi Calm Calm - N/A   Partly Cloudy
3:09 AM 72.0 °F - 70.0 °F 93% 29.97 in 3.0 mi Calm Calm - N/A   Mostly Cloudy
3:42 AM 72.0 °F - 70.0 °F 93% 29.97 in 1.8 mi Calm Calm - N/A   Overcast
3:53 AM 72.0 °F - 70.0 °F 93% 29.94 in 2.5 mi Calm Calm - N/A   Overcast
4:12 AM 73.0 °F - 71.1 °F 93% 29.97 in 5.0 mi NNW 3.5 mph - N/A   Overcast
4:19 AM 73.0 °F - 71.1 °F 93% 29.97 in 6.0 mi Calm Calm - N/A   Overcast
4:53 AM 73.9 °F - 71.1 °F 91% 29.95 in 8.0 mi NW 3.5 mph - N/A   Overcast
5:24 AM 72.0 °F - 70.0 °F 93% 29.97 in 5.0 mi Calm Calm - N/A   Scattered Clouds
5:37 AM 71.1 °F - 69.1 °F 93% 29.97 in 1.8 mi Calm Calm - N/A   Partly Cloudy
5:53 AM 71.1 °F - 69.1 °F 93% 29.95 in 1.0 mi Calm Calm - N/A   Mist
6:04 AM 72.0 °F - 69.1 °F 91% 29.98 in 2.0 mi Calm Calm - N/A   Clear
6:12 AM 71.1 °F - 69.1 °F 93% 29.98 in 4.0 mi Calm Calm - N/A   Clear
6:45 AM 71.1 °F - 69.1 °F 93% 29.99 in 2.0 mi Calm Calm - N/A   Clear
6:53 AM 72.0 °F - 69.1 °F 91% 29.97 in 3.0 mi Calm Calm - N/A   Clear
7:53 AM 75.0 °F - 70.0 °F 84% 29.98 in 10.0 mi Calm Calm - N/A   Clear
8:53 AM 78.1 °F - 69.1 °F 74% 29.99 in 10.0 mi Calm Calm - N/A   Partly Cloudy
9:53 AM 81.0 °F 84.4 °F 70.0 °F 69% 29.99 in 10.0 mi Calm Calm - N/A   Clear
10:53 AM 84.0 °F 87.8 °F 69.1 °F 61% 29.99 in 10.0 mi ESE 4.6 mph - N/A   Clear
11:53 AM 87.1 °F 91.3 °F 69.1 °F 55% 29.98 in 10.0 mi Calm Calm - N/A   Partly Cloudy
12:53 PM 88.0 °F 90.3 °F 66.0 °F 48% 29.97 in 10.0 mi Calm Calm - N/A   Partly Cloudy
1:53 PM 91.0 °F 94.3 °F 66.9 °F 45% 29.96 in 10.0 mi Calm Calm - N/A   Partly Cloudy
2:53 PM 91.9 °F 95.4 °F 66.9 °F 44% 29.94 in 10.0 mi Variable 3.5 mph - N/A   Partly Cloudy
3:53 PM 91.0 °F 93.0 °F 64.9 °F 42% 29.91 in 10.0 mi Calm Calm - N/A   Partly Cloudy
4:53 PM 91.9 °F 93.3 °F 64.0 °F 39% 29.90 in 10.0 mi NNE 3.5 mph - N/A   Clear
5:53 PM 91.0 °F 93.0 °F 64.9 °F 42% 29.90 in 10.0 mi East 5.8 mph - N/A   Clear
6:53 PM 88.0 °F 92.1 °F 69.1 °F 53% 29.90 in 10.0 mi Calm Calm - N/A   Clear
7:53 PM 82.0 °F 86.3 °F 71.1 °F 69% 29.91 in 10.0 mi Calm Calm - N/A   Clear
8:53 PM 77.0 °F - 71.1 °F 82% 29.91 in 10.0 mi Calm Calm - N/A   Clear
9:53 PM 75.0 °F - 69.1 °F 82% 29.92 in 10.0 mi Calm Calm - N/A   Clear
10:53 PM 75.0 °F - 70.0 °F 84% 29.93 in 10.0 mi Calm Calm - N/A   Mostly Cloudy
11:53 PM 75.0 °F - 70.0 °F 84% 29.94 in 10.0 mi Calm Calm - N/A   Clear